QPF
0.03 0.03 0.02 0.02 0.02 0.02 0.01 0.01 0.01 0.01 0.01 0.01 0.00 0.01 0.01 0.01 0.02 0.02 0.01 0.02 0.04 0.04 0.03 0.03 0.04 0.05 0.06 0.08 0.07 0.04 0.03 0.03 0.01 0.01 0.02 0.03 0.03 0.02
0.03 0.02 0.02 0.02 0.02 0.02 0.01 0.01 0.01 0.01 0.01 0.01 0.01 0.01 0.02 0.02 0.02 0.02 0.02 0.02 0.03 0.04 0.04 0.04 0.05 0.07 0.08 0.07 0.04 0.02 0.01 0.01 0.01 0.02 0.01 0.01 0.01 0.01
0.03 0.02 0.01 0.01 0.01 0.01 0.01 0.01 0.01 0.01 0.01 0.01 0.02 0.02 0.01 0.02 0.01 0.01 0.01 0.02 0.02 0.03 0.04 0.04 0.05 0.06 0.07 0.08 0.06 0.04 0.02 0.01 0.02 0.02 0.02 0.02 0.01 0.01
0.02 0.01 0.01 0.01 0.01 0.00 0.01 0.01 0.01 0.01 0.02 0.01 0.01 0.01 0.01 0.01 0.01 0.01 0.00 0.01 0.02 0.03 0.03 0.03 0.04 0.06 0.08 0.09 0.08 0.05 0.04 0.03 0.03 0.04 0.04 0.03 0.02 0.01
0.02 0.01 0.01 0.01 0.01 0.01 0.01 0.01 0.01 0.01 0.02 0.01 0.00 0.00 0.00 0.00 0.00 0.00 0.00 0.00 0.01 0.01 0.02 0.03 0.03 0.04 0.07 0.09 0.10 0.08 0.06 0.05 0.05 0.06 0.05 0.04 0.03 0.02
0.02 0.02 0.02 0.01 0.01 0.01 0.01 0.01 0.01 0.01 0.01 0.01 0.01 0.01 0.01 0.01 0.00 0.00 0.00 0.00 0.00 0.02 0.02 0.03 0.03 0.04 0.05 0.06 0.08 0.10 0.09 0.08 0.08 0.07 0.06 0.03 0.03 0.02
0.03 0.03 0.03 0.03 0.02 0.01 0.01 0.01 0.01 0.01 0.01 0.02 0.02 0.01 0.01 0.01 0.01 0.01 0.00 0.00 0.00 0.01 0.03 0.04 0.06 0.04 0.04 0.05 0.06 0.07 0.09 0.10 0.09 0.07 0.05 0.04 0.02 0.01
0.02 0.02 0.01 0.02 0.02 0.02 0.02 0.01 0.01 0.01 0.01 0.02 0.01 0.01 0.00 0.01 0.01 0.01 0.01 0.01 0.01 0.01 0.02 0.05 0.06 0.04 0.03 0.03 0.05 0.06 0.07 0.07 0.08 0.07 0.05 0.04 0.03 0.02
0.03 0.02 0.01 0.01 0.01 0.01 0.02 0.02 0.02 0.02 0.02 0.03 0.02 0.01 0.01 0.01 0.01 0.01 0.01 0.01 0.01 0.01 0.01 0.02 0.03 0.03 0.03 0.04 0.05 0.05 0.05 0.07 0.08 0.07 0.05 0.04 0.04 0.03
0.02 0.01 0.02 0.02 0.03 0.03 0.03 0.02 0.02 0.02 0.02 0.02 0.01 0.01 0.01 0.01 0.01 0.01 0.01 0.01 0.01 0.01 0.01 0.01 0.01 0.03 0.02 0.02 0.04 0.05 0.04 0.03 0.05 0.06 0.06 0.05 0.03 0.03
0.02 0.02 0.02 0.02 0.03 0.05 0.04 0.03 0.02 0.02 0.02 0.02 0.01 0.01 0.01 0.01 0.01 0.01 0.01 0.01 0.01 0.01 0.01 0.01 0.01 0.02 0.02 0.02 0.02 0.02 0.02 0.02 0.03 0.04 0.05 0.05 0.04 0.04
0.01 0.01 0.02 0.02 0.02 0.04 0.03 0.03 0.03 0.02 0.02 0.02 0.02 0.02 0.02 0.02 0.02 0.02 0.02 0.02 0.02 0.01 0.01 0.01 0.02 0.02 0.02 0.02 0.01 0.01 0.01 0.02 0.03 0.03 0.04 0.05 0.05 0.04
0.01 0.02 0.02 0.02 0.03 0.03 0.03 0.02 0.02 0.03 0.04 0.03 0.02 0.02 0.02 0.02 0.02 0.02 0.02 0.02 0.02 0.02 0.02 0.02 0.01 0.01 0.01 0.01 0.01 0.01 0.01 0.01 0.02 0.02 0.03 0.04 0.05 0.05
0.01 0.01 0.01 0.02 0.02 0.02 0.01 0.02 0.03 0.04 0.04 0.04 0.03 0.03 0.03 0.03 0.03 0.03 0.03 0.03 0.02 0.03 0.04 0.03 0.02 0.01 0.01 0.01 0.01 0.01 0.01 0.01 0.01 0.01 0.02 0.03 0.03 0.05
0.02 0.03 0.03 0.02 0.01 0.01 0.01 0.02 0.02 0.03 0.03 0.03 0.03 0.03 0.04 0.04 0.05 0.04 0.03 0.02 0.02 0.02 0.02 0.02 0.02 0.02 0.02 0.02 0.02 0.01 0.01 0.01 0.01 0.01 0.02 0.02 0.02 0.03
0.02 0.03 0.03 0.03 0.02 0.01 0.01 0.02 0.02 0.03 0.03 0.03 0.03 0.03 0.04 0.04 0.05 0.05 0.04 0.03 0.02 0.02 0.02 0.03 0.03 0.02 0.02 0.02 0.02 0.01 0.01 0.01 0.01 0.01 0.01 0.02 0.02 0.03
0.02 0.02 0.02 0.03 0.02 0.01 0.01 0.01 0.03 0.03 0.03 0.03 0.03 0.04 0.04 0.05 0.04 0.04 0.04 0.03 0.03 0.02 0.02 0.02 0.03 0.03 0.03 0.02 0.02 0.01 0.01 0.01 0.02 0.02 0.03 0.03 0.02 0.02
0.01 0.01 0.01 0.01 0.01 0.01 0.01 0.01 0.01 0.02 0.02 0.02 0.02 0.02 0.03 0.04 0.04 0.04 0.03 0.03 0.03 0.03 0.02 0.02 0.03 0.04 0.04 0.03 0.02 0.02 0.02 0.02 0.02 0.02 0.02 0.02 0.01 0.01
0.03 0.02 0.01 0.01 0.01 0.01 0.01 0.01 0.02 0.02 0.02 0.02 0.02 0.02 0.02 0.02 0.03 0.03 0.02 0.03 0.03 0.03 0.03 0.03 0.03 0.03 0.04 0.04 0.03 0.02 0.02 0.03 0.02 0.02 0.01 0.01 0.01 0.01
0.02 0.02 0.02 0.02 0.02 0.02 0.02 0.02 0.02 0.02 0.02 0.03 0.03 0.03 0.04 0.03 0.03 0.03 0.02 0.02 0.02 0.02 0.02 0.03 0.04 0.03 0.03 0.04 0.04 0.04 0.03 0.03 0.03 0.02 0.01 0.01 0.01 0.01
0.02 0.02 0.02 0.02 0.02 0.03 0.03 0.02 0.03 0.03 0.03 0.03 0.03 0.03 0.04 0.04 0.04 0.03 0.04 0.04 0.03 0.03 0.02 0.02 0.02 0.04 0.04 0.04 0.04 0.03 0.03 0.02 0.02 0.01 0.01 0.00 0.00 0.01
0.03 0.03 0.03 0.02 0.02 0.02 0.02 0.03 0.03 0.05 0.05 0.05 0.05 0.05 0.04 0.04 0.04 0.04 0.03 0.04 0.04 0.03 0.03 0.03 0.03 0.03 0.03 0.04 0.03 0.03 0.03 0.02 0.01 0.01 0.00 0.00 0.01 0.01
0.04 0.03 0.03 0.03 0.03 0.03 0.03 0.04 0.05 0.06 0.06 0.06 0.06 0.05 0.05 0.05 0.05 0.05 0.05 0.04 0.04 0.04 0.04 0.03 0.03 0.03 0.03 0.03 0.03 0.03 0.03 0.02 0.01 0.01 0.00 0.01 0.01 0.01
MSLP
1015.37 1015.87 1016.41 1017.00 1017.64 1018.31 1019.01 1019.70 1020.36 1020.98 1021.54 1022.03 1022.43 1022.75 1022.99 1023.17 1023.30 1023.41 1023.50 1023.61 1023.74 1023.87 1024.02 1024.15 1024.25 1024.31 1024.31 1024.25 1024.14 1024.00 1023.84 1023.69 1023.56 1023.45 1023.37 1023.31 1023.26 1023.20
1015.76 1016.15 1016.59 1017.07 1017.60 1018.19 1018.82 1019.48 1020.14 1020.77 1021.36 1021.89 1022.34 1022.69 1022.96 1023.15 1023.28 1023.37 1023.45 1023.53 1023.62 1023.73 1023.84 1023.96 1024.05 1024.10 1024.11 1024.07 1023.98 1023.86 1023.73 1023.61 1023.50 1023.42 1023.37 1023.33 1023.30 1023.27
1016.08 1016.40 1016.75 1017.15 1017.61 1018.13 1018.71 1019.33 1019.97 1020.61 1021.21 1021.76 1022.23 1022.61 1022.89 1023.09 1023.21 1023.29 1023.35 1023.40 1023.46 1023.53 1023.62 1023.70 1023.77 1023.81 1023.82 1023.79 1023.72 1023.63 1023.53 1023.45 1023.38 1023.34 1023.32 1023.32 1023.32 1023.32
1016.32 1016.59 1016.89 1017.23 1017.63 1018.10 1018.64 1019.23 1019.85 1020.47 1021.08 1021.63 1022.10 1022.49 1022.78 1022.98 1023.10 1023.17 1023.21 1023.23 1023.26 1023.30 1023.35 1023.40 1023.44 1023.46 1023.46 1023.43 1023.38 1023.31 1023.26 1023.21 1023.19 1023.19 1023.22 1023.27 1023.31 1023.35
1016.48 1016.72 1016.98 1017.29 1017.65 1018.09 1018.59 1019.15 1019.74 1020.34 1020.92 1021.46 1021.93 1022.31 1022.60 1022.81 1022.93 1023.00 1023.03 1023.03 1023.04 1023.04 1023.06 1023.07 1023.07 1023.06 1023.04 1023.01 1022.97 1022.92 1022.90 1022.90 1022.92 1022.98 1023.06 1023.16 1023.25 1023.34
1016.57 1016.78 1017.02 1017.31 1017.65 1018.06 1018.53 1019.05 1019.60 1020.17 1020.72 1021.23 1021.68 1022.06 1022.35 1022.56 1022.69 1022.77 1022.80 1022.81 1022.80 1022.78 1022.76 1022.73 1022.69 1022.65 1022.60 1022.55 1022.50 1022.47 1022.47 1022.50 1022.58 1022.69 1022.82 1022.97 1023.11 1023.24
1016.62 1016.81 1017.03 1017.30 1017.62 1018.00 1018.43 1018.91 1019.42 1019.94 1020.45 1020.92 1021.35 1021.71 1022.01 1022.23 1022.39 1022.49 1022.54 1022.56 1022.55 1022.52 1022.47 1022.40 1022.33 1022.24 1022.15 1022.07 1022.01 1021.98 1021.99 1022.05 1022.16 1022.31 1022.49 1022.68 1022.87 1023.05
1016.63 1016.79 1016.99 1017.24 1017.54 1017.89 1018.28 1018.72 1019.17 1019.64 1020.10 1020.54 1020.94 1021.30 1021.60 1021.84 1022.03 1022.16 1022.25 1022.29 1022.30 1022.26 1022.20 1022.11 1021.99 1021.86 1021.73 1021.62 1021.53 1021.48 1021.49 1021.56 1021.68 1021.86 1022.07 1022.30 1022.53 1022.74
1016.58 1016.73 1016.92 1017.15 1017.42 1017.74 1018.09 1018.48 1018.88 1019.29 1019.70 1020.10 1020.48 1020.82 1021.13 1021.40 1021.63 1021.81 1021.94 1022.02 1022.05 1022.03 1021.97 1021.86 1021.71 1021.55 1021.37 1021.22 1021.10 1021.02 1021.01 1021.07 1021.20 1021.38 1021.60 1021.85 1022.09 1022.32
1016.47 1016.62 1016.80 1017.01 1017.27 1017.56 1017.87 1018.21 1018.56 1018.92 1019.28 1019.64 1020.00 1020.34 1020.66 1020.95 1021.21 1021.44 1021.61 1021.74 1021.81 1021.81 1021.75 1021.64 1021.48 1021.30 1021.10 1020.91 1020.75 1020.65 1020.61 1020.64 1020.75 1020.92 1021.13 1021.37 1021.62 1021.84
1016.27 1016.43 1016.62 1016.84 1017.09 1017.36 1017.64 1017.94 1018.25 1018.57 1018.89 1019.22 1019.54 1019.87 1020.20 1020.51 1020.80 1021.06 1021.28 1021.44 1021.55 1021.58 1021.55 1021.46 1021.30 1021.11 1020.90 1020.70 1020.52 1020.39 1020.32 1020.32 1020.40 1020.53 1020.71 1020.92 1021.14 1021.34
1015.96 1016.16 1016.38 1016.62 1016.88 1017.14 1017.42 1017.70 1017.98 1018.26 1018.55 1018.85 1019.15 1019.46 1019.78 1020.09 1020.39 1020.67 1020.92 1021.11 1021.25 1021.33 1021.33 1021.26 1021.14 1020.97 1020.78 1020.58 1020.39 1020.25 1020.15 1020.12 1020.15 1020.24 1020.37 1020.53 1020.70 1020.86
1015.54 1015.80 1016.07 1016.35 1016.64 1016.92 1017.20 1017.47 1017.74 1018.01 1018.28 1018.55 1018.83 1019.12 1019.41 1019.71 1020.00 1020.28 1020.53 1020.74 1020.91 1021.01 1021.06 1021.04 1020.96 1020.84 1020.68 1020.51 1020.35 1020.20 1020.09 1020.03 1020.02 1020.05 1020.12 1020.21 1020.31 1020.40
1015.02 1015.36 1015.69 1016.03 1016.35 1016.66 1016.96 1017.25 1017.52 1017.79 1018.05 1018.30 1018.56 1018.82 1019.08 1019.35 1019.61 1019.86 1020.10 1020.32 1020.49 1020.63 1020.71 1020.75 1020.73 1020.67 1020.57 1020.45 1020.32 1020.19 1020.08 1019.99 1019.94 1019.91 1019.90 1019.92 1019.94 1019.96
1014.41 1014.83 1015.23 1015.62 1015.99 1016.34 1016.67 1016.98 1017.28 1017.55 1017.81 1018.06 1018.31 1018.54 1018.77 1018.99 1019.21 1019.43 1019.63 1019.83 1020.01 1020.16 1020.28 1020.36 1020.41 1020.42 1020.39 1020.33 1020.24 1020.14 1020.03 1019.93 1019.83 1019.75 1019.67 1019.61 1019.56 1019.50
1013.74 1014.21 1014.67 1015.10 1015.51 1015.90 1016.26 1016.61 1016.93 1017.23 1017.51 1017.77 1018.01 1018.23 1018.43 1018.61 1018.79 1018.96 1019.13 1019.29 1019.45 1019.61 1019.75 1019.88 1019.98 1020.05 1020.08 1020.08 1020.04 1019.97 1019.87 1019.75 1019.62 1019.49 1019.35 1019.22 1019.09 1018.97
1013.01 1013.51 1013.99 1014.44 1014.87 1015.28 1015.67 1016.05 1016.41 1016.75 1017.06 1017.35 1017.60 1017.82 1018.01 1018.17 1018.31 1018.45 1018.57 1018.70 1018.85 1018.99 1019.15 1019.30 1019.44 1019.56 1019.64 1019.68 1019.68 1019.62 1019.53 1019.40 1019.25 1019.07 1018.88 1018.70 1018.52 1018.34
1012.24 1012.72 1013.18 1013.61 1014.02 1014.42 1014.83 1015.23 1015.63 1016.02 1016.38 1016.72 1017.01 1017.26 1017.47 1017.63 1017.76 1017.87 1017.98 1018.08 1018.20 1018.34 1018.49 1018.65 1018.80 1018.94 1019.06 1019.12 1019.14 1019.10 1019.00 1018.86 1018.68 1018.47 1018.26 1018.03 1017.82 1017.62
1011.43 1011.84 1012.22 1012.59 1012.95 1013.32 1013.72 1014.14 1014.57 1015.00 1015.43 1015.83 1016.19 1016.50 1016.75 1016.95 1017.10 1017.22 1017.32 1017.42 1017.53 1017.65 1017.80 1017.95 1018.11 1018.25 1018.36 1018.43 1018.45 1018.41 1018.31 1018.15 1017.96 1017.74 1017.50 1017.27 1017.04 1016.83
1010.60 1010.88 1011.14 1011.40 1011.68 1011.99 1012.35 1012.77 1013.22 1013.71 1014.20 1014.69 1015.13 1015.52 1015.85 1016.11 1016.32 1016.48 1016.60 1016.71 1016.82 1016.94 1017.08 1017.23 1017.37 1017.51 1017.61 1017.67 1017.68 1017.63 1017.52 1017.36 1017.16 1016.94 1016.70 1016.47 1016.26 1016.07
1009.76 1009.88 1009.99 1010.10 1010.26 1010.50 1010.81 1011.20 1011.67 1012.20 1012.76 1013.32 1013.86 1014.34 1014.77 1015.12 1015.40 1015.62 1015.79 1015.94 1016.07 1016.20 1016.34 1016.49 1016.62 1016.75 1016.84 1016.90 1016.90 1016.84 1016.73 1016.57 1016.37 1016.16 1015.94 1015.73 1015.54 1015.38
1008.98 1008.91 1008.83 1008.80 1008.83 1008.96 1009.20 1009.56 1010.02 1010.58 1011.19 1011.82 1012.44 1013.02 1013.54 1013.98 1014.34 1014.64 1014.88 1015.08 1015.25 1015.42 1015.58 1015.73 1015.88 1016.00 1016.10 1016.15 1016.15 1016.10 1016.00 1015.85 1015.68 1015.49 1015.29 1015.11 1014.96 1014.82
1008.30 1008.04 1007.80 1007.61 1007.50 1007.53 1007.70 1008.01 1008.46 1009.02 1009.65 1010.33 1011.01 1011.66 1012.25 1012.76 1013.20 1013.57 1013.88 1014.13 1014.36 1014.57 1014.76 1014.95 1015.12 1015.27 1015.38 1015.46 1015.48 1015.46 1015.38 1015.26 1015.12 1014.96 1014.80 1014.65 1014.52 1014.41
Thickness
5689 5688 5687 5686 5685 5684 5684 5683 5679 5675 5676 5679 5682 5685 5686 5686 5687 5688 5688 5689 5690 5690 5690 5690 5690 5690 5689 5688 5687 5686 5684 5683 5682 5680 5679 5678 5677 5677
5685 5684 5684 5683 5681 5681 5680 5679 5678 5676 5674 5676 5678 5680 5681 5683 5684 5684 5685 5686 5686 5687 5687 5687 5687 5686 5686 5685 5684 5683 5682 5681 5679 5678 5676 5675 5674 5673
5681 5681 5680 5679 5678 5677 5676 5675 5674 5673 5671 5673 5674 5675 5677 5678 5679 5680 5681 5682 5683 5683 5683 5684 5683 5683 5682 5682 5681 5680 5679 5678 5677 5676 5674 5673 5671 5670
5677 5677 5676 5676 5674 5673 5672 5671 5670 5670 5669 5668 5669 5670 5672 5673 5675 5676 5677 5678 5678 5679 5679 5679 5679 5679 5678 5678 5677 5677 5676 5676 5675 5673 5672 5670 5669 5667
5673 5673 5673 5672 5670 5669 5668 5667 5666 5667 5665 5664 5664 5665 5666 5668 5669 5671 5672 5673 5674 5675 5675 5675 5675 5675 5674 5674 5674 5673 5673 5672 5672 5670 5669 5668 5666 5665
5669 5669 5668 5668 5667 5665 5664 5663 5662 5661 5660 5659 5659 5659 5660 5661 5662 5664 5665 5666 5667 5669 5670 5670 5670 5670 5670 5670 5670 5670 5669 5669 5668 5668 5667 5666 5664 5663
5664 5664 5664 5664 5664 5662 5661 5659 5657 5656 5655 5654 5654 5654 5654 5655 5656 5657 5658 5659 5661 5662 5663 5664 5665 5665 5665 5666 5666 5666 5666 5665 5665 5664 5664 5663 5662 5661
5658 5658 5659 5659 5659 5657 5657 5656 5655 5652 5651 5650 5649 5649 5650 5651 5651 5652 5651 5652 5654 5656 5655 5658 5659 5660 5661 5661 5662 5662 5662 5662 5661 5661 5660 5660 5658 5658
5654 5653 5654 5655 5653 5652 5651 5650 5649 5649 5649 5647 5646 5646 5646 5647 5646 5646 5646 5646 5647 5649 5649 5651 5653 5654 5656 5657 5657 5658 5658 5658 5657 5657 5656 5655 5655 5654
5649 5649 5648 5648 5648 5647 5646 5645 5644 5644 5643 5643 5643 5643 5643 5643 5643 5643 5642 5641 5642 5643 5643 5644 5648 5649 5652 5652 5653 5653 5653 5653 5653 5652 5652 5651 5651 5650
5644 5644 5644 5643 5643 5642 5640 5639 5638 5638 5638 5638 5638 5638 5638 5638 5638 5637 5636 5636 5637 5638 5637 5638 5642 5643 5645 5647 5647 5648 5648 5647 5647 5647 5647 5647 5646 5645
5639 5639 5639 5639 5638 5637 5636 5635 5634 5634 5633 5632 5632 5632 5632 5632 5632 5632 5632 5630 5631 5632 5633 5632 5635 5635 5638 5640 5641 5641 5641 5641 5641 5642 5642 5641 5640 5639
5636 5635 5636 5635 5634 5633 5632 5631 5631 5630 5628 5627 5627 5627 5627 5626 5626 5626 5627 5627 5626 5627 5628 5626 5627 5627 5629 5632 5634 5634 5634 5634 5634 5635 5635 5635 5634 5634
5633 5632 5632 5631 5630 5628 5627 5627 5626 5624 5623 5622 5621 5621 5621 5621 5621 5621 5621 5621 5622 5621 5621 5620 5620 5620 5621 5623 5626 5627 5627 5627 5627 5628 5628 5628 5628 5628
5629 5629 5627 5626 5625 5624 5623 5622 5620 5619 5618 5617 5616 5616 5616 5615 5615 5615 5615 5615 5615 5615 5615 5615 5614 5614 5614 5615 5617 5618 5618 5619 5619 5620 5620 5621 5622 5621
5624 5623 5622 5621 5620 5619 5618 5617 5616 5615 5614 5613 5612 5611 5610 5609 5608 5608 5608 5608 5608 5609 5609 5608 5608 5608 5608 5609 5609 5610 5610 5611 5612 5611 5612 5613 5614 5614
5619 5618 5617 5616 5615 5614 5613 5612 5611 5609 5608 5607 5606 5605 5604 5602 5602 5601 5600 5600 5600 5602 5603 5602 5601 5601 5601 5601 5602 5603 5603 5603 5604 5603 5603 5604 5606 5607
5614 5614 5613 5612 5611 5610 5609 5607 5606 5604 5603 5602 5600 5599 5597 5596 5595 5594 5594 5594 5594 5595 5595 5595 5594 5594 5594 5595 5594 5595 5595 5595 5595 5595 5595 5596 5598 5600
5609 5609 5608 5608 5606 5605 5603 5602 5601 5599 5597 5595 5594 5593 5591 5590 5589 5588 5588 5588 5588 5588 5588 5588 5587 5586 5587 5589 5590 5587 5586 5587 5586 5586 5587 5587 5589 5592
5603 5603 5603 5602 5601 5599 5598 5597 5596 5594 5591 5590 5589 5587 5586 5585 5584 5583 5582 5581 5582 5582 5581 5581 5581 5580 5580 5581 5581 5580 5578 5578 5579 5579 5579 5580 5580 5581
5597 5596 5596 5595 5594 5593 5592 5590 5589 5588 5586 5584 5583 5582 5580 5579 5578 5578 5577 5574 5574 5575 5575 5576 5575 5573 5572 5571 5571 5572 5571 5570 5570 5570 5571 5572 5573 5574
5590 5589 5588 5587 5586 5586 5584 5583 5582 5580 5579 5578 5577 5575 5574 5573 5572 5571 5570 5569 5569 5569 5568 5568 5567 5565 5564 5565 5565 5565 5564 5563 5562 5561 5561 5562 5563 5566
5582 5582 5581 5580 5579 5578 5577 5576 5575 5574 5573 5572 5570 5569 5567 5566 5565 5564 5563 5563 5562 5561 5560 5559 5558 5557 5557 5556 5556 5556 5555 5555 5555 5555 5554 5554 5554 5555